Location: Peach Mountain Observatory
(42.3967°N, 83.9367°W)
Time: 21:26:25
(UTC-05:00)

SR - Visible Passes

Search period start: 25 January 2020 00:00
Search period end: 04 February 2020 00:00
Orbit: 574 x 882 km, 66.7° (Epoch: 25 January)

Date Brightness Start Highest point End Pass type
(mag) Time Alt. Az. Time Alt. Az. Time Alt. Az.
25 Jan ? 06:05:43 10° N 06:09:43 19° NE 06:13:31 10° E visible
26 Jan ? 05:17:00 10° N 05:19:20 12° NNE 05:21:37 10° ENE visible
26 Jan ? 06:57:24 10° NNW 07:02:52 52° NE 07:07:51 10° SE visible
27 Jan ? 06:08:00 10° NNW 06:12:53 30° NE 06:17:26 10° ESE visible
28 Jan ? 05:19:05 11° N 05:22:41 18° NE 05:26:21 10° E visible
28 Jan ? 07:00:05 10° NNW 07:05:39 88° WSW 07:10:41 10° SSE visible
29 Jan ? 04:31:02 11° NNE 04:32:17 12° NNE 04:34:18 10° NE visible
29 Jan ? 06:10:28 10° NNW 06:15:53 49° NE 06:20:48 10° SE visible
30 Jan ? 05:22:29 16° N 05:25:52 28° NE 05:30:19 10° ESE visible
30 Jan ? 07:03:00 10° NW 07:08:14 47° WSW 07:12:59 10° S visible
31 Jan ? 04:34:37 17° NNE 04:35:40 18° NE 04:39:10 10° E visible
31 Jan ? 06:14:03 15° NNW 06:18:40 88° ENE 06:23:40 10° SSE visible
01 Feb ? 03:46:51 10° NE 03:46:51 10° NE 03:46:56 10° NE visible
01 Feb ? 05:26:18 27° N 05:28:52 47° NE 05:33:45 10° SE visible
01 Feb ? 07:06:19 10° NW 07:10:37 25° WSW 07:14:37 10° SSW visible
01 Feb ? 19:53:32 10° SSE 19:55:20 19° SSE 19:55:20 19° SSE visible
01 Feb ? 21:34:46 10° SW 21:34:51 10° SW 21:34:51 10° SW visible
02 Feb ? 04:38:41 27° NE 04:38:51 27° NE 04:43:12 10° ESE visible
02 Feb ? 06:18:09 23° NW 06:21:16 50° WSW 06:26:02 10° S visible
02 Feb ? 19:05:55 10° SE 19:08:24 15° ESE 19:08:24 15° ESE visible
02 Feb ? 20:44:45 10° SSW 20:47:55 34° SW 20:47:55 34° SW visible
03 Feb ? 03:51:12 12° ENE 03:51:12 12° ENE 03:51:59 10° ENE visible
03 Feb ? 05:30:41 59° NNW 05:31:41 83° ENE 05:36:40 10° SSE visible
03 Feb ? 07:10:39 10° WNW 07:12:51 13° WSW 07:14:58 10° SW visible
03 Feb ? 19:55:21 10° S 20:00:57 54° ESE 20:00:57 54° ESE visible
03 Feb ? 21:38:18 10° WSW 21:40:27 20° W 21:40:27 20° W visible
